Simultaneous Nadir Overpasses (SNOs) Predictions

Prediction of SNOs between AQUA and METOP-C Satellite Orbit:

Table of predicted SNOs for the next 14.0 days since TLE Epoch: 11/7/2020
Index Date (AQUA) Time (AQUA) Lat,Lon (AQUA) SZA (AQUA ) Date (METOP-C) Time (METOP-C) Lat,Lon (METOP-C) SZA (METOP-C ) Distance(km) Time Diff (sec)
1 11/08/2020 11:29:40 73.63, 2.22 90.32 11/08/2020 11:28:27 73.63, 2.05 90.33 5.24 73
2 11/08/2020 12:19:08 -73.76, 169.59 89.55 11/08/2020 12:19:07 -73.73, 169.61 89.57 2.77 1
3 11/08/2020 13:08:36 73.79, -22.84 90.50 11/08/2020 13:09:45 73.81, -22.86 90.52 2.99 69
4 11/11/2020 07:03:56 73.70, 68.52 91.18 11/11/2020 07:02:50 73.70, 68.61 91.18 3.04 66
5 11/11/2020 07:53:23 -73.77,-124.00 88.74 11/11/2020 07:53:31 -73.74,-123.95 88.77 3.07 8
6 11/11/2020 08:42:55 74.01, 43.11 91.51 11/11/2020 08:44:06 73.98, 43.94 91.48 25.73 71
7 11/14/2020 02:38:09 73.67, 135.02 91.90 11/14/2020 02:37:14 73.66, 134.94 91.90 2.60 55
8 11/14/2020 03:27:36 -73.74, -57.50 88.02 11/14/2020 03:27:54 -73.76, -57.52 88.01 1.89 18
9 11/14/2020 04:17:15 74.34, 108.78 92.60 11/14/2020 04:18:22 74.34, 111.25 92.58 74.17 67
10 11/16/2020 22:12:24 73.70,-158.61 92.64 11/16/2020 22:11:38 73.68,-158.63 92.62 2.75 46
11 11/16/2020 23:01:51 -73.77, 8.87 87.28 11/16/2020 23:02:18 -73.76, 8.91 87.29 1.49 27
12 11/19/2020 17:46:38 73.69, -92.15 93.29 11/19/2020 17:46:02 73.69, -92.20 93.29 1.50 36
13 11/19/2020 18:36:05 -73.76, 75.33 86.63 11/19/2020 18:36:42 -73.77, 75.33 86.62 0.82 37
